Powrót do katalogu

JCSAT 2

AktywnyŁącznośćGEO
NORAD 20402·PAYLOAD·🇯🇵 Japan

Wystrzelony Jan 1, 1990 z Cape Canaveral Space Force Station

Loading…

TLE

ŚwieżeSource: Space-Track

Epoka: Sep 13, 2026, 23:55 UTC

1 20402U 90001B   26256.99666575 -.00000157  00000-0  00000-0 0  9996
2 20402  16.0244  10.3206 0057812 326.2718  30.0763  0.98539612116203

Śledź JCSAT 2 w czasie rzeczywistym z AllMySat

Download on the App Store